Weather History for Windom, MN

Change the Weather History Date:

Sunday, December 11, 2011

  Actual Average Record
Temperature  
Mean Temperature 27 °F -  
Max Temperature 33 °F 29 °F 52 °F (1949)
Min Temperature 21 °F 10 °F -18 °F (1955)
Degree Days  
Heating Degree Days 38    
Moisture  
Dew Point 25 °F    
Average Humidity 87    
Maximum Humidity 100    
Minimum Humidity 74    
Precipitation  
Precipitation 0.00 in - - ()
Sea Level Pressure  
Sea Level Pressure 30.03 in    
Wind  
Wind Speed 17 mph (SSW)    
Max Wind Speed 28 mph    
Max Gust Speed 38 mph    
Visibility 7 miles    
Events      
Averages and records for this station are not official NWS values.
T = Trace of Precipitation, MM = Missing Value Source: NWS Daily Summary

Daily Weather History Graph

Daily Weather History Graph

Search for Another Location

Airport:

Trip Planner

Search our weather history database for the weather conditions in past years. The results will help you decide how hot, cold, wet, or windy it might be!

Date:

Astronomy

Dec. 11, 2011 Rise Set
Actual Time 7:44 AM CST 4:42 PM CST
Civil Twilight 7:11 AM CST 5:15 PM CST
Nautical Twilight 6:35 AM CST 5:51 PM CST
Astronomical Twilight 6:00 AM CST 6:26 PM CST
Moon 5:53 PM CST (12/11) 8:33 AM CST (12/11)
Length of Visible Light 10h 03m
Length of Day
8h 58m
Full, 99% of the Moon is Illuminated
Dec 11
Full
Dec 17
Last Quarter
Dec 24
New
Jan 1
First Quarter
Jan 9
Full

Hourly Weather History & Observations

Time (CST) Temp. Windchill Dew Point Humidity Pressure Visibility Wind Dir Wind Speed Gust Speed Precip Events Conditions
12:12 AM 21.2 °F 8.9 °F 17.6 °F 86% 30.09 in 10.0 mi SSW 12.7 mph - N/A   Clear
12:32 AM 21.2 °F 8.9 °F 17.6 °F 86% 30.08 in 10.0 mi SSW 12.7 mph - N/A   Clear
12:52 AM 23.0 °F 10.1 °F 17.6 °F 80% 30.07 in 10.0 mi SSW 15.0 mph - N/A   Clear
1:12 AM 23.0 °F 8.7 °F 17.6 °F 80% 30.06 in 10.0 mi SSW 18.4 mph - N/A   Clear
1:32 AM 24.8 °F 10.7 °F 17.6 °F 74% 30.06 in 10.0 mi SSW 19.6 mph - N/A   Clear
1:53 AM 24.8 °F 12.4 °F 17.6 °F 74% 30.06 in 10.0 mi SSW 15.0 mph 20.7 mph N/A   Clear
2:12 AM 23.0 °F 10.1 °F 17.6 °F 80% 30.07 in 10.0 mi SSW 15.0 mph - N/A   Clear
2:32 AM 24.8 °F 12.4 °F 17.6 °F 74% 30.07 in 10.0 mi SSW 15.0 mph - N/A   Clear
2:53 AM 23.0 °F 10.6 °F 17.6 °F 80% 30.07 in 10.0 mi SSW 13.8 mph - N/A   Clear
3:12 AM 24.8 °F 13.4 °F 19.4 °F 80% 30.06 in 10.0 mi SSW 12.7 mph 20.7 mph N/A   Clear
3:32 AM 24.8 °F 13.4 °F 19.4 °F 80% 30.05 in 10.0 mi SSW 12.7 mph - N/A   Clear
3:53 AM 26.6 °F 14.7 °F 19.4 °F 74% 30.05 in 10.0 mi SSW 15.0 mph - N/A   Clear
4:12 AM 24.8 °F 11.9 °F 19.4 °F 80% 30.04 in 10.0 mi SSW 16.1 mph 23.0 mph N/A   Clear
4:32 AM 24.8 °F 12.4 °F 19.4 °F 80% 30.04 in 10.0 mi SSW 15.0 mph - N/A   Clear
4:53 AM 24.8 °F 11.5 °F 21.2 °F 86% 30.04 in 10.0 mi SSW 17.3 mph - N/A   Clear
5:12 AM 24.8 °F 12.4 °F 21.2 °F 86% 30.03 in 10.0 mi SSW 15.0 mph - N/A   Clear
5:32 AM 23.0 °F 9.6 °F 21.2 °F 93% 30.04 in 10.0 mi SSW 16.1 mph - N/A   Clear
5:53 AM 23.0 °F 10.1 °F 21.2 °F 93% 30.04 in 10.0 mi SSW 15.0 mph - N/A   Clear
6:12 AM 24.8 °F 11.9 °F 21.2 °F 86% 30.04 in 10.0 mi SSW 16.1 mph - N/A   Clear
6:32 AM 24.8 °F 11.9 °F 21.2 °F 86% 30.04 in 10.0 mi SSW 16.1 mph - N/A   Clear
6:52 AM 24.8 °F 11.9 °F 23.0 °F 93% 30.04 in 10.0 mi SSW 16.1 mph 24.2 mph N/A   Clear
7:12 AM 24.8 °F 10.3 °F 23.0 °F 93% 30.04 in 10.0 mi SSW 20.7 mph - N/A   Clear
7:33 AM 24.8 °F 10.7 °F 21.2 °F 86% 30.04 in 10.0 mi SSW 19.6 mph 25.3 mph N/A   Clear
7:52 AM 24.8 °F 10.3 °F 21.2 °F 86% 30.04 in 7.0 mi SSW 20.7 mph 26.5 mph N/A   Clear
8:12 AM 24.8 °F 11.5 °F 21.2 °F 86% 30.05 in 5.0 mi SSW 17.3 mph 24.2 mph N/A   Clear
8:33 AM 24.8 °F 11.5 °F 21.2 °F 86% 30.05 in 4.0 mi SSW 17.3 mph 25.3 mph N/A   Clear
8:52 AM 24.8 °F 11.5 °F 21.2 °F 86% 30.05 in 4.0 mi SSW 17.3 mph - N/A   Clear
9:12 AM 24.8 °F 10.7 °F 24.8 °F 100% 30.05 in 3.0 mi SSW 19.6 mph - N/A   Mostly Cloudy
9:33 AM 26.6 °F 11.7 °F 26.6 °F 100% 30.05 in 2.5 mi SSW 24.2 mph 27.6 mph N/A   Overcast
9:52 AM 28.4 °F 14.7 °F 28.4 °F 100% 30.05 in 2.5 mi SSW 21.9 mph 28.8 mph N/A   Overcast
10:12 AM 28.4 °F 15.1 °F 28.4 °F 100% 30.05 in 3.0 mi SSW 20.7 mph 31.1 mph N/A   Overcast
10:32 AM 30.2 °F 17.4 °F 28.4 °F 93% 30.06 in 3.0 mi SSW 20.7 mph 31.1 mph N/A   Overcast
10:52 AM 30.2 °F 17.1 °F 30.2 °F 100% 30.05 in 3.0 mi South 21.9 mph 31.1 mph N/A   Overcast
11:12 AM 32.0 °F 19.5 °F 30.2 °F 93% 30.05 in 3.0 mi SSW 21.9 mph 28.8 mph N/A   Overcast
11:32 AM 33.8 °F 22.2 °F 30.2 °F 87% 30.04 in 3.0 mi South 20.7 mph 24.2 mph N/A   Overcast
11:53 AM 33.8 °F 21.9 °F 30.2 °F 87% 30.03 in 4.0 mi SSW 21.9 mph 32.2 mph N/A   Overcast
12:12 PM 33.8 °F 21.9 °F 30.2 °F 87% 30.02 in 4.0 mi SSW 21.9 mph 29.9 mph N/A   Overcast
12:32 PM 33.8 °F 21.3 °F 30.2 °F 87% 30.02 in 4.0 mi SSW 24.2 mph 31.1 mph N/A   Overcast
12:52 PM 33.8 °F 21.6 °F 30.2 °F 87% 30.02 in 4.0 mi SSW 23.0 mph 36.8 mph N/A   Overcast
1:12 PM 33.8 °F 21.9 °F 30.2 °F 87% 30.02 in 4.0 mi SSW 21.9 mph 31.1 mph N/A   Overcast
1:32 PM 33.8 °F 22.2 °F 30.2 °F 87% 30.02 in 4.0 mi SSW 20.7 mph 29.9 mph N/A   Overcast
1:53 PM 33.8 °F 22.2 °F 30.2 °F 87% 30.01 in 3.0 mi SSW 20.7 mph 29.9 mph N/A   Overcast
2:12 PM 33.8 °F 21.6 °F 30.2 °F 87% 30.00 in 3.0 mi SSW 23.0 mph 32.2 mph N/A   Overcast
2:33 PM 33.8 °F 22.8 °F 30.2 °F 87% 30.00 in 3.0 mi South 18.4 mph 32.2 mph N/A   Overcast
2:52 PM 33.8 °F 21.3 °F 30.2 °F 87% 30.00 in 3.0 mi SSW 24.2 mph 32.2 mph N/A   Overcast
3:12 PM 33.8 °F 21.0 °F 30.2 °F 87% 30.00 in 3.0 mi South 25.3 mph 32.2 mph N/A   Overcast
3:33 PM 33.8 °F 20.8 °F 30.2 °F 87% 29.99 in 3.0 mi SSW 26.5 mph 36.8 mph N/A   Overcast
3:52 PM 33.8 °F 20.5 °F 30.2 °F 87% 29.99 in 3.0 mi SSW 27.6 mph 33.4 mph N/A   Overcast
4:12 PM 33.8 °F 22.5 °F 30.2 °F 87% 30.00 in 4.0 mi SSW 19.6 mph 32.2 mph N/A   Overcast
4:33 PM 33.8 °F 20.8 °F 30.2 °F 87% 29.99 in 5.0 mi SSW 26.5 mph 29.9 mph N/A   Overcast
4:52 PM 33.8 °F 20.5 °F 30.2 °F 87% 29.99 in 7.0 mi South 27.6 mph 38.0 mph N/A   Overcast
5:12 PM 33.8 °F 21.6 °F 30.2 °F 87% 29.99 in 7.0 mi SSW 23.0 mph 34.5 mph N/A   Overcast
5:32 PM 33.8 °F 21.9 °F 30.2 °F 87% 29.99 in 7.0 mi SSW 21.9 mph 29.9 mph N/A   Overcast
5:52 PM 33.8 °F 21.9 °F 30.2 °F 87% 29.99 in 7.0 mi SSW 21.9 mph 28.8 mph N/A   Overcast
6:12 PM 33.8 °F 22.2 °F 30.2 °F 87% 29.99 in 7.0 mi South 20.7 mph 27.6 mph N/A   Overcast
6:32 PM 35.6 °F 24.5 °F 30.2 °F 81% 29.99 in 10.0 mi SSW 20.7 mph 25.3 mph N/A   Overcast
6:53 PM 35.6 °F 25.2 °F 30.2 °F 81% 30.00 in 10.0 mi SSW 18.4 mph 26.5 mph N/A   Overcast
7:12 PM 33.8 °F 23.2 °F 30.2 °F 87% 30.00 in 7.0 mi South 17.3 mph 24.2 mph N/A   Overcast
7:32 PM 33.8 °F 22.5 °F 32.0 °F 93% 30.00 in 7.0 mi South 19.6 mph 23.0 mph N/A   Overcast
7:53 PM 33.8 °F 23.5 °F 32.0 °F 93% 30.00 in 7.0 mi South 16.1 mph 24.2 mph N/A   Overcast
8:53 PM 35.6 °F 25.2 °F 33.8 °F 93% 30.00 in 7.0 mi South 18.4 mph - N/A   Overcast
9:12 PM 35.6 °F 26.2 °F 33.8 °F 93% 30.02 in 5.0 mi South 15.0 mph - N/A   Overcast
9:32 PM 35.6 °F 28.0 °F 33.8 °F 93% 30.02 in 5.0 mi South 10.4 mph - N/A   Overcast
9:53 PM 35.6 °F 28.0 °F 33.8 °F 93% 30.02 in 5.0 mi South 10.4 mph 17.3 mph N/A   Mostly Cloudy
10:12 PM 35.6 °F 27.5 °F 33.8 °F 93% 30.02 in 5.0 mi South 11.5 mph 18.4 mph N/A   Mostly Cloudy
11:12 PM 35.6 °F 27.1 °F 33.8 °F 93% 30.02 in 5.0 mi South 12.7 mph - N/A   Overcast
11:32 PM 35.6 °F 27.1 °F 33.8 °F 93% 30.02 in 5.0 mi South 12.7 mph - N/A   Overcast
11:53 PM 35.6 °F 26.6 °F 33.8 °F 93% 30.02 in 5.0 mi South 13.8 mph 17.3 mph N/A   Overcast